#timestamp,LO_Frequency,Hit,StdDev 
1596916815.7,286046999.8,N
1596916835.5,286047000.5,N
1596916855.3,286047000.4,N
1596916875.2,286047002.4,N
1596916895.0,286047000.0,N
1596916895.9,286047000.0,N
1596916915.8,286046999.9,N
1596916935.6,286047002.7,N
1596916955.4,286047001.9,N
1596916975.3,286047000.2,N
1596916995.1,286047000.3,N
1596917015.9,286047000.9,N
1596917035.7,286047000.3,N
1596917055.5,286047001.0,N
1596917075.4,286046999.8,N
1596917095.2,286047002.8,N
1596917115.0,286046999.8,N
1596917115.9,286046999.8,N
1596917135.8,286047000.3,N
1596917155.6,286047000.4,N
1596917175.5,286047001.1,N
1596917195.3,286046999.9,N
1596917215.1,286047000.7,N
1596917235.9,286046999.8,N
1596917255.7,286047000.5,N
1596917275.5,286047002.5,N
1596917295.4,286047002.7,N
1596917315.2,286046999.8,N
1596917335.1,286047000.0,N
1596917336.0,286047000.0,N
1596917355.8,286046999.9,N
1596917375.6,286047000.4,N
1596917395.5,286047000.3,N
1596917415.3,286047000.2,N
1596917435.1,286047002.7,N
1596917455.9,286047000.3,N
1596917475.7,286047000.4,N
1596917495.6,286047001.2,N
1596917515.4,286046999.7,N
1596917535.2,286046999.8,N
1596917555.1,286047002.7,N
1596917556.0,286047002.7,N
1596917575.8,286047002.4,N
1596917595.6,286047000.4,N
1596917615.5,286047000.4,N
1596917635.3,286047000.2,N
1596917655.2,286047002.8,N
1596917675.9,286047001.7,N
1596917695.7,286047002.3,N
1596917715.6,286047002.7,N
1596917735.4,286047001.8,N
1596917755.2,286047002.0,N
1596917775.1,286047002.3,N
1596917776.0,286047002.3,N
1596917795.8,286047002.6,N
1596917815.7,286047002.3,N
1596917835.5,286047002.5,N
1596917855.3,286047002.1,N
1596917875.2,286047002.8,N
1596917895.0,286047002.1,N
1596917895.9,286047002.1,N
1596917915.8,286046999.8,N
1596917935.6,286047000.4,N
1596917955.4,286047000.0,N
1596917975.3,286047000.0,N
1596917995.1,286047000.0,N
1596918015.8,286047000.1,N
1596918035.7,286046998.5,N
1596918055.5,286047001.0,N
1596918075.4,286047000.1,N
1596918095.2,286047000.1,N
1596918115.0,286047000.4,N
1596918115.9,286047000.4,N
1596918135.8,286047000.5,N
1596918155.6,286046998.9,N
1596918175.5,286046996.9,N
1596918195.3,286046998.9,N
1596918215.1,286046999.2,N
1596918235.9,286046999.2,N
1596918255.7,286046998.6,N
1596918275.5,286046999.4,N
1596918295.4,286046999.6,N
1596918315.2,286046996.5,N
1596918335.1,286046996.6,N
1596918336.0,286046996.6,N
1596918355.8,286046994.9,Y
1596918375.6,286046995.6,P
1596918395.5,286046993.3,P
1596918415.3,286046996.0,N
1596918435.2,286046996.3,N
1596918455.9,286046995.8,N
1596918475.7,286046995.4,N
1596918495.6,286046995.8,N
1596918515.4,286046996.2,N
1596918535.2,286046996.0,N
1596918555.1,286046996.0,N
1596918556.0,286046996.0,N
1596918575.8,286046996.3,N
1596918595.7,286046996.0,Y
1596918615.5,286046998.3,P
1596918635.3,286046999.5,N
1596918655.2,286046996.9,N
1596918675.0,286046996.5,N
1596918675.9,286046996.5,N
1596918695.7,286046996.8,N
1596918715.6,286046999.2,N
1596918735.4,286046998.7,N
1596918755.3,286047000.8,N
1596918775.1,286047001.1,N
1596918795.8,286046998.5,N
1596918815.7,286046998.8,N
1596918835.5,286047001.2,N
1596918855.4,286046999.3,N
1596918875.2,286046998.4,N
1596918895.0,286046999.0,N
1596918895.9,286046999.0,N
1596918915.8,286046998.1,N
1596918935.6,286047000.5,N
1596918955.5,286046998.1,N
1596918975.3,286046998.2,N
1596918995.1,286046999.1,N
1596919015.9,286046996.5,N
1596919035.7,286047001.0,N
1596919055.5,286046999.2,N
1596919075.4,286046998.3,N
1596919095.2,286047001.2,N
1596919115.1,286046998.4,N
1596919116.0,286046998.4,N
1596919135.8,286046998.1,N
1596919155.7,286046999.2,N
1596919175.5,286046999.3,N
1596919195.3,286046997.0,N
1596919215.2,286046999.4,N
1596919235.0,286046999.2,N
1596919235.9,286046999.2,N
1596919255.8,286046999.0,N
1596919275.6,286046999.1,N
1596919295.4,286046997.1,N
1596919315.3,286046999.5,N
1596919335.1,286046999.1,N
1596919355.8,286047001.1,N
1596919375.7,286046998.5,N
1596919395.5,286046999.3,N
1596919415.3,286046997.0,N
1596919435.2,286046999.2,N
1596919455.0,286046997.2,N
1596919455.9,286046997.2,N
1596919475.8,286046997.1,N
1596919495.6,286046996.8,N
1596919515.4,286046996.8,N
1596919535.3,286046998.6,N
1596919555.1,286046996.9,N
1596919575.8,286046996.9,N
1596919595.7,286046994.9,Y
1596919615.5,286046997.0,P
1596919635.4,286046999.1,N
1596919655.2,286047001.1,N
1596919675.0,286047000.0,N
1596919675.9,286047000.0,N
1596919695.8,286046999.9,N
1596919715.6,286046998.7,N
1596919735.5,286046999.4,N
1596919755.3,286046999.6,N
1596919775.1,286046999.5,N
1596919795.9,286046999.4,N
1596919815.7,286046998.6,N
1596919835.5,286046998.9,N
1596919855.4,286047001.2,N
1596919875.2,286047000.1,N
1596919895.1,286047000.5,N
1596919896.0,286047000.5,N
1596919915.8,286046999.8,N
1596919935.6,286046999.8,N
1596919955.5,286046999.8,N
1596919975.3,286046999.8,N
1596919995.2,286047000.5,N
1596920015.9,286047000.5,N
1596920035.7,286046999.9,N
1596920055.6,286047000.1,N
1596920075.4,286047000.4,N
1596920095.2,286047000.2,N
1596920115.1,286047000.3,N
1596920116.0,286047000.3,N
1596920135.8,286046999.8,N
1596920155.7,286047000.1,N
1596920175.5,286046999.8,N
1596920195.3,286047001.9,Y
1596920215.2,286047001.3,P
1596920235.0,286047002.7,P
1596920235.9,286047002.7,N
1596920255.8,286046999.8,N
1596920275.6,286047002.3,N
1596920295.4,286046999.7,N
1596920315.3,286047002.6,N
1596920335.1,286047001.5,N
1596920355.8,286047002.6,N
1596920375.7,286047004.4,Y
1596920395.5,286046999.9,P
